Location: Gorze? G�rny
(49.8500°N, 19.5000°E)
Time: 05:18:14
(UTC+00:00)

Cosmos 2366 rocket - Pass Details

Date: 13 May 2021
Orbit: 955 x 996 km, 82.9° (Epoch: 20 June)

Event Time Altitude Azimuth Distance (km) Brightness Sun altitude
Rises 20:50:37 0° 352° (N) 3,654 8.4 -17.5°
Reaches altitude 10° 20:53:11 10° 357° (N) 2,707 7.4 -17.7°
Maximum altitude 20:59:16 56° 75° (ENE) 1,141 4.3 -18.1°
Enters shadow 21:02:22 29° 141° (SE) 1,699 4.7 -18.3°
